DateTimeUTC,F1_A11,F1_S11,BsB_S11,BsG_S11,BsR_S11,BbsB_S11,BbsG_S11,BbsR_S11,BaB_A11,BaG_A11,BaR_A11,Tu_S11,T_S11,Uu_S11,U_S11,P_S11,T1_A11
2021-08-08T04:00:00Z,00000200,20000000,,,,,,,-000.05,-000.08,0000.20,18.4,25.3,05.2,03.4,0665.8,31.0
2021-08-08T04:01:00Z,00000200,20000000,,,,,,,-000.40,-000.78,-000.35,18.4,25.3,05.0,03.3,0665.8,31.0
2021-08-08T04:02:00Z,00000200,20000000,,,,,,,-000.11,0000.16,-000.16,18.4,25.3,05.0,03.3,0665.8,31.0
2021-08-08T04:03:00Z,00000200,60000000,,,,,,,0000.08,-000.10,0000.07,18.4,25.3,05.0,03.3,0665.8,31.0
2021-08-08T04:04:00Z,00000200,40000000,0001.82,0002.09,0001.25,0001.08,0000.39,0000.15,0000.35,0000.38,0000.36,18.5,25.1,04.9,03.3,0666.8,31.0
2021-08-08T04:05:00Z,00000200,00000000,0003.15,0002.04,0001.02,0000.19,0000.45,0000.41,0000.51,0000.39,0000.01,18.5,25.0,04.8,03.2,0666.8,31.0
2021-08-08T04:06:00Z,00000200,00000000,0003.09,0002.18,0001.18,0000.58,0000.32,0000.74,0000.34,0000.07,-000.01,18.5,25.0,04.8,03.2,0666.8,31.0
2021-08-08T04:07:00Z,00000200,00000000,0002.23,0001.61,0000.90,0001.17,0000.41,0000.08,0000.21,0000.49,0000.51,18.5,25.0,04.6,03.1,0666.8,31.0
2021-08-08T04:08:00Z,00000200,00000000,0002.87,0001.86,0000.94,0000.37,0000.17,0000.40,0000.15,0000.32,0000.18,18.5,25.0,04.7,03.2,0666.8,31.0
2021-08-08T04:09:00Z,00000200,00000000,0002.87,0002.01,0001.06,0000.19,0000.32,0000.06,0000.79,0000.48,0000.52,18.6,25.0,04.7,03.2,0666.8,31.1
2021-08-08T04:10:00Z,00000200,00000000,0002.32,0001.84,0001.06,0000.50,0000.21,0000.25,0000.21,0000.27,0000.01,18.6,25.0,04.6,03.1,0666.8,31.1
2021-08-08T04:11:00Z,00000200,00000000,0002.54,0001.79,0000.95,0000.91,0000.08,0000.01,0000.27,0000.19,0000.34,18.7,25.1,04.6,03.1,0666.8,31.1
2021-08-08T04:12:00Z,00000200,00000000,0002.98,0001.63,0001.02,0000.45,-000.09,0000.41,0000.54,0000.44,0000.30,18.7,25.1,04.5,03.0,0666.8,31.0
2021-08-08T04:13:00Z,00000200,00000000,0002.34,0001.75,0001.02,0000.72,-000.06,0000.17,0000.60,0000.37,0000.40,18.7,25.1,04.5,03.1,0666.8,31.1
2021-08-08T04:14:00Z,00000200,00000000,0002.60,0001.44,0001.07,0000.60,0000.09,-000.18,0000.29,0000.69,0000.33,18.7,25.1,04.4,03.0,0666.8,31.1
2021-08-08T04:15:00Z,00000200,00000000,0002.87,0001.51,0000.89,0000.26,-000.01,0000.19,0000.26,0000.33,0000.08,18.7,25.1,04.4,03.0,0666.8,31.1
2021-08-08T04:16:00Z,00000200,00000000,0001.78,0001.59,0000.80,0000.84,0000.13,0000.45,0000.35,0000.02,0000.39,18.7,25.1,04.5,03.1,0666.8,31.0
2021-08-08T04:17:00Z,00000200,00000000,0002.89,0001.69,0000.93,0000.74,0000.01,0000.23,0000.29,0000.10,0000.50,18.7,25.1,04.5,03.0,0666.8,31.1
2021-08-08T04:18:00Z,00000200,00000000,0002.02,0001.57,0000.94,0000.34,0000.37,0000.10,0000.39,0000.80,-000.15,18.6,25.0,04.3,02.9,0666.8,31.0
2021-08-08T04:19:00Z,00000200,00000000,0002.38,0001.71,0000.87,-000.05,0000.46,0000.36,0000.48,0000.31,0000.51,18.6,25.0,04.4,03.0,0666.9,31.0
2021-08-08T04:20:00Z,00000200,00000000,0003.02,0001.80,0000.95,0000.94,0000.30,-000.01,0000.22,0000.57,0000.25,18.6,25.0,04.4,03.0,0666.9,31.0
2021-08-08T04:21:00Z,00000200,00000000,0002.14,0001.82,0001.07,0000.38,0000.16,0000.27,0000.24,-000.07,0000.08,18.6,25.0,04.4,02.9,0666.9,31.0
2021-08-08T04:22:00Z,00000200,00000000,0002.14,0001.58,0000.98,0000.55,-000.13,0000.25,0000.23,0000.09,-000.05,18.6,25.0,04.3,02.9,0666.9,31.0
2021-08-08T04:23:00Z,00000200,00000000,0002.69,0001.94,0001.11,0000.53,0000.28,0000.41,0000.65,0000.34,0000.73,18.6,25.0,04.4,02.9,0666.9,31.1
2021-08-08T04:24:00Z,00000200,00000000,0002.01,0001.66,0001.15,0000.55,0000.03,0000.24,0000.17,0000.39,0000.04,18.5,25.0,04.3,02.9,0666.9,31.0
2021-08-08T04:25:00Z,00000200,00000000,0001.92,0001.52,0000.66,0000.63,0000.19,0000.42,0000.22,0000.41,0000.29,18.5,25.0,04.3,02.9,0666.9,31.0
2021-08-08T04:26:00Z,00000200,00000000,0002.19,0001.41,0001.15,0000.75,0000.31,0000.14,0000.48,0000.84,0000.43,18.5,25.0,04.2,02.9,0666.9,31.0
2021-08-08T04:27:00Z,00000200,00000000,0002.16,0001.69,0001.06,0000.42,0000.18,0000.10,-000.08,-000.14,-000.06,18.5,25.0,04.3,02.9,0666.9,31.0
2021-08-08T04:28:00Z,00000200,00000000,0002.08,0001.78,0000.80,0000.39,0000.30,0000.31,0000.83,0000.36,0000.41,18.5,24.9,04.2,02.8,0666.9,31.0
2021-08-08T04:29:00Z,00000200,00000000,0001.38,0001.74,0000.89,0000.84,0000.17,0000.47,0000.26,0000.09,-000.14,18.5,24.9,04.2,02.8,0666.9,31.0
2021-08-08T04:30:00Z,00000200,00000000,0001.91,0001.26,0000.64,0000.46,0000.33,0000.00,-000.05,-000.02,0000.11,18.5,24.9,04.1,02.8,0666.9,31.0
2021-08-08T04:31:00Z,00000200,00000000,0002.60,0001.40,0000.99,0000.88,0000.19,-000.01,0000.36,0000.44,0000.53,18.4,24.9,04.2,02.8,0666.9,31.0
2021-08-08T04:32:00Z,00000200,00000000,0002.44,0001.69,0000.76,0000.43,0000.14,0000.04,0001.00,0000.47,0000.41,18.4,24.9,04.1,02.8,0666.9,31.0
2021-08-08T04:33:00Z,00000200,00000000,0002.43,0001.68,0001.00,0000.23,0000.08,0000.39,0000.04,0000.52,0000.22,18.4,24.9,04.1,02.7,0666.9,31.0
2021-08-08T04:34:00Z,00000200,00000000,0002.27,0001.55,0000.89,0000.22,0000.20,0000.32,0000.26,0000.14,0000.39,18.4,24.9,04.1,02.8,0666.9,31.0
2021-08-08T04:35:00Z,00000200,00000000,0002.28,0001.88,0001.10,0000.12,0000.45,0000.03,0000.19,0000.39,-000.08,18.4,24.9,04.1,02.7,0666.9,31.0
2021-08-08T04:36:00Z,00000200,00000000,0002.85,0001.35,0000.92,0000.40,0000.21,0000.26,0000.36,0000.59,0000.59,18.4,24.9,04.1,02.7,0666.9,31.0
2021-08-08T04:37:00Z,00000200,00000000,0002.43,0001.73,0000.93,0000.30,-000.09,0000.14,0000.59,0000.14,0000.17,18.4,24.9,04.1,02.8,0666.9,31.0
2021-08-08T04:38:00Z,00000200,00000000,0002.54,0001.79,0001.09,0000.39,0000.08,0000.70,0000.22,0000.01,-000.13,18.4,24.9,04.1,02.7,0666.9,31.0
2021-08-08T04:39:00Z,00000200,00000000,0002.85,0001.85,0000.95,0000.91,-000.07,0000.07,0000.37,0000.14,0000.43,18.5,24.9,04.0,02.7,0666.8,31.0
2021-08-08T04:40:00Z,00000200,00000000,0002.50,0001.62,0000.98,0000.49,0000.17,0000.30,0000.52,0000.62,0000.50,18.6,24.9,04.0,02.7,0666.9,31.0
2021-08-08T04:41:00Z,00000200,00000000,0001.96,0001.45,0000.88,0001.02,0000.10,0000.22,-000.10,0000.02,0000.03,18.7,25.0,03.9,02.6,0666.9,31.1
2021-08-08T04:42:00Z,00000200,00000000,0001.71,0001.69,0000.94,0000.27,0000.08,0000.05,0000.78,0001.02,0000.67,18.7,25.1,04.0,02.7,0666.9,31.1
2021-08-08T04:43:00Z,00000200,00000000,0002.10,0001.68,0000.63,0000.41,0000.36,0000.36,0000.22,-000.16,-000.47,18.8,25.1,03.9,02.7,0666.9,31.1
2021-08-08T04:44:00Z,00000200,00000000,0002.57,0001.67,0000.95,0000.74,0000.46,0000.27,-000.11,0000.11,0000.50,18.8,25.1,03.8,02.6,0666.9,31.1
2021-08-08T04:45:00Z,00000200,00000000,0002.27,0001.80,0000.61,0000.62,0000.31,-000.08,0000.50,0000.51,0000.40,18.8,25.1,03.8,02.6,0666.9,31.1
2021-08-08T04:46:00Z,00000200,00000000,0002.07,0001.70,0001.08,0000.85,0000.06,0000.08,0000.58,0000.35,0000.32,18.8,25.1,03.7,02.5,0666.9,31.1
2021-08-08T04:47:00Z,00000200,00000000,0002.10,0001.45,0000.74,0000.30,0000.31,0000.43,0000.11,0000.24,0000.21,18.8,25.1,03.7,02.5,0666.9,31.1
2021-08-08T04:48:00Z,00000200,00000000,0002.89,0001.73,0000.73,0000.04,0000.05,0000.17,0000.12,0000.21,-000.06,18.7,25.1,03.7,02.5,0666.9,31.0
2021-08-08T04:49:00Z,00000200,00000000,0001.19,0001.67,0000.80,0000.74,0000.16,0000.13,0000.51,0000.49,0000.54,18.7,25.1,03.7,02.5,0666.9,31.1
2021-08-08T04:50:00Z,00000200,00000000,0002.45,0001.53,0000.94,0000.41,-000.09,0000.30,0000.16,0000.03,-000.12,18.7,25.1,03.7,02.5,0666.9,31.0
2021-08-08T04:51:00Z,00000200,00000000,0001.79,0001.34,0001.24,0000.63,0000.28,0000.40,0000.20,0000.10,0000.23,18.7,25.1,03.7,02.5,0666.9,31.0
2021-08-08T04:52:00Z,00000200,00000000,0002.05,0001.53,0000.82,0000.28,-000.15,0000.20,0000.67,0000.34,0000.37,18.6,25.0,03.7,02.5,0666.9,31.0
2021-08-08T04:53:00Z,00000200,00000000,0002.07,0001.62,0000.59,0000.81,0000.03,-000.12,0000.10,0000.45,0000.03,18.7,25.1,03.6,02.4,0666.9,31.0
2021-08-08T04:54:00Z,00000200,00000000,0002.28,0001.80,0000.72,0000.58,0000.14,0000.19,0000.00,0000.11,0000.54,18.7,25.1,03.6,02.5,0666.9,31.1
2021-08-08T04:55:00Z,00000200,00000000,0001.97,0001.00,0000.83,0000.67,0000.29,0000.53,0000.56,0000.54,0000.21,18.8,25.2,03.5,02.4,0666.9,31.1
2021-08-08T04:56:00Z,00000200,00000000,0001.93,0001.56,0000.76,0000.11,0000.24,-000.03,0000.27,-000.03,0000.17,18.8,25.2,03.6,02.4,0667.0,31.1
2021-08-08T04:57:00Z,00000200,40000000,,,,,,,0000.41,0001.04,0000.60,18.8,25.2,03.5,02.4,0667.0,31.1
2021-08-08T04:58:00Z,00000200,60000000,,,,,,,0000.02,-000.66,-000.62,18.6,25.3,03.7,02.5,0666.0,31.1
2021-08-08T04:59:00Z,00000200,20000000,,,,,,,-000.55,-000.19,-000.21,18.5,25.4,03.7,02.4,0666.0,31.1
